Home   Weather   Aalen   Past weeks

Flag for Germany Past Weather in Aalen, Baden-Württemberg, Germany — Yesterday and Last 2 Weeks

48 °F


Feels Like: 48 °F
Forecast: 40 / 54 °F
Wind: No wind

Location: Niederstetten

Current Time: Oct 26, 2016 at 6:14:14 AM

Latest Report: Oct 26, 2016 at 5:20 AM

Visibility: 5 mi

Pressure: 30.30 "Hg

Humidity: 94%

Dew Point: 46 °F

Location of AalenLocation

Past Weather in Aalen — Graph


Aalen Temperature Yesterday

Maximum temperature yesterday: 55 °F (at 12:20 AM)
Minimum temperature yesterday: 50 °F (at 9:20 PM)
Average temperature yesterday: 53 °F

High & Low Weather Summary for the Past Weeks

High66 °F (Oct 16, 2:20 PM)100% (Oct 12, 6:20 AM)30.30 "Hg (Oct 12, 6:20 AM)
Low36 °F (Oct 12, 8:20 AM)46% (Oct 16, 3:20 PM)29.68 "Hg (Oct 14, 6:20 PM)
Average47 °F88%30.01 "Hg
* Reported Oct 11 4:20 AM — Oct 26 4:20 AM, Aalen, Weather by CustomWeather, © 2016

Note: Actual official high and low records may vary slightly from our data, if they occured in-between our weather recording intervals... More about our weather records


Aalen Weather History for the Previous 24 Hours

Scroll right to see more
Time TempWeatherWind HumidityBarometerVisibility
4:20 AM
Wed, Oct 26
48 °FFog.2 mph94%30.30 "Hg5 mi
3:59 AM48 °FFog.1 mph94%30.30 "Hg3 mi
3:20 AM48 °FLow clouds.1 mph94%30.30 "Hg1 mi
3:01 AM48 °FOvercast.2 mph94%30.30 "Hg1 mi
2:20 AM48 °FLow clouds.1 mph94%30.30 "HgN/A
1:20 AM50 °FMostly cloudy.2 mph88%30.30 "HgN/A
12:20 AM50 °FMostly cloudy.1 mph88%30.27 "HgN/A
11:20 PM
Tue, Oct 25
50 °FOvercast.1 mph88%30.27 "HgN/A
10:20 PM50 °FOvercast.1 mph88%30.27 "HgN/A
9:20 PM50 °FMostly cloudy.2 mph94%30.27 "HgN/A
8:20 PM52 °FOvercast.3 mph88%30.24 "HgN/A
7:20 PM52 °FPassing clouds.5 mph94%30.24 "HgN/A
6:20 PM52 °FPassing clouds.5 mph94%30.21 "HgN/A
5:20 PM54 °FPartly sunny.3 mph88%30.21 "HgN/A
4:47 PM54 °FPartly sunny.5 mph88%30.21 "HgN/A
4:20 PM54 °FPartly sunny.5 mph82%30.18 "HgN/A
3:20 PM54 °FBroken clouds.3 mph82%30.18 "HgN/A
2:20 PM54 °FPartly sunny.8 mph82%30.18 "HgN/A
1:20 PM54 °FBroken clouds.7 mph82%30.18 "HgN/A
12:20 PM54 °FPartly sunny.6 mph88%30.18 "HgN/A
11:20 AM54 °FPartly sunny.7 mph88%30.18 "HgN/A
10:20 AM54 °FMostly cloudy.8 mph94%30.15 "HgN/A
9:20 AM54 °FMostly cloudy.7 mph94%30.15 "HgN/A
8:20 AM54 °FLight rain. Mostly cloudy.8 mph94%30.09 "Hg5 mi
7:20 AM55 °FLight rain. Low clouds.12 mph94%30.07 "Hg4 mi
6:20 AM55 °FDrizzle. Fog.16 mph94%30.07 "Hg3 mi
6:04 AM55 °FLow clouds.14 mph94%30.04 "Hg4 mi
Weather by CustomWeather, © 2016

See weather overviewHow to use our weather pages